Location: Newark
(36.0797°N, 3.9744°E)
Time: 17:06:51
(UTC+00:00)

Vanguard 2 Rocket - Pass Details

Date: 12 December 2019
Orbit: 554 x 3326 km, 32.9° (Epoch: 28 January)

Event Time Altitude Azimuth Distance (km) Brightness Sun altitude
Rises 13:37:35 0° 203° (SSW) 7,284 12.9 24.4°
Reaches altitude 10° 13:44:01 10° 192° (SSW) 6,260 12.6 23.7°
Maximum altitude 13:58:13 25° 145° (SE) 4,598 10.9 22.2°
Drops below altitude 10° 14:09:28 10° 98° (E) 4,954 10.4 20.8°
Sets 14:13:39 0° 86° (E) 5,557 10.5 20.3°
